Вернуться в каталог

STARLINK-34874

АктивенСвязьVLEO
NORAD 65335·PAYLOAD·🇺🇸 United States

Запущен Aug 27, 2025 с Cape Canaveral Space Force Station

Loading…

Ближайшие Пролёты (ближайшие 24 часа)

TLE

СвежийSource: CelesTrak SupGP

Эпоха: Sep 14, 2026, 22:52 UTC

1 65335C 25189N   26257.95326389  .00012298  00000+0  36350-3 0  2572
2 65335  53.1586  45.7388 0001228  82.4194 166.2823 15.34371086    15

Отслеживайте STARLINK-34874 в реальном времени с AllMySat

Download on the App Store